Location: Unspecified
(0.0000°N, 0.0000°E)
Time: 19:28:56
(UTC+00:00)

DELTA 1 DEB - Pass Details

Date: 22 December 2025
Orbit: 1498 x 1659 km, 102.1° (Epoch: 19 January)

Event Time Altitude Azimuth Distance (km) Brightness Sun altitude
Exits shadow 22:40:20 11° 180° (S) 3,639 ? -59.8°
Drops below altitude 10° 22:40:28 10° 180° (S) 3,680 ? -59.8°
Sets 22:43:25 0° 185° (S) 4,687 ? -60.2°
